[[{"header":{"parameterUnit":"m.s-1","parameterCategory":1,"la1":30.2991,"la2":30.254,"lo1":-89.0895,"lo2":-89.0444,"dy":0.0017,"dx":0.0017,"nx":28,"ny":28,"refTime":"2024-08-10T15:00:00:Z","depth":0,"parameterNumber":2,"parameterNumberName":"U-component_of_WINDS"},"data":[0,0,0,0,0,0,0,0,0,0,0,0,0,0,0,0,0,0,0,0,0,0,0,0,0,0,0,0,0,0,0,0,0,0,0,0,0,0,0,0,0,0,0,0,0,0,0,0,0,0,0,0,0,0,0,0,0,0,-2.0866,-2.0867,0,-2.0959,-2.096,-2.0961,-2.0953,-2.0952,-2.095,-2.0949,-2.104,-2.1043,-2.1047,0,0,0,0,0,0,0,0,0,0,0,0,0,-2.0675,-2.0678,-2.0865,-2.0867,-2.0868,-2.0959,-2.096,-2.0961,-2.0953,-2.0952,-2.095,-2.0948,-2.1038,-2.1043,-2.1047,0,0,0,0,0,0,0,0,0,0,0,0,0,-2.0762,-2.0679,-2.0865,-2.0875,-2.0877,-2.0958,-2.096,-2.0962,-2.0954,-2.0952,-2.095,-2.0948,-2.1037,-2.1042,-2.1048,-2.1125,0,0,-2.1065,-2.1067,0,0,0,0,0,0,0,0,-2.0757,-2.0769,-2.0872,-2.0874,-2.0877,-2.0942,-2.0926,-2.1016,-2.0954,-2.0924,-2.0949,-2.0947,-2.1009,-2.1016,-2.1038,-2.1129,-2.1133,-2.1066,-2.1069,-2.1071,-2.1073,0,0,0,0,0,0,0,-2.0751,-2.0765,-2.0902,-2.0874,-2.0876,-2.0873,-2.0883,-2.0943,-2.0977,-2.0927,-2.0926,-2.0938,-2.1009,-2.1033,-2.104,-2.1134,-2.1065,-2.107,-2.1074,-2.1076,-2.1289,-2.1292,0,0,0,0,0,0,-2.0743,-2.076,-2.0899,-2.0905,-2.081,-2.0878,-2.0889,-2.0923,-2.0976,-2.0983,-2.094,-2.0937,-2.1025,-2.1034,-2.1044,-2.1135,-2.1071,-2.1076,-2.108,-2.1287,-2.129,-2.1292,0,0,0,0,0,0,-2.0739,-2.0756,-2.0895,-2.0832,-2.085,-2.0884,-2.0922,-2.0926,-2.095,-2.0986,-2.0992,-2.0958,-2.1023,-2.1036,-2.1104,-2.1138,-2.1079,-2.1084,-2.1284,-2.1288,-2.1291,-2.132,0,0,0,0,0,0,-2.0734,-2.0754,-2.0785,-2.0833,-2.0853,-2.0956,-2.0924,-2.093,-2.096,-2.0958,-2.1005,-2.101,-2.1023,-2.1096,-2.111,-2.1145,-2.1088,-2.1281,-2.1286,-2.129,-2.1316,-2.1324,-2.133,0,0,0,0,0,-2.0727,-2.0789,-2.0787,-2.0804,-2.0893,-2.0958,-2.097,-2.0984,-2.0963,-2.0993,-2.1016,-2.1009,-2.1133,-2.1103,-2.1119,-2.1156,-2.1279,-2.1285,-2.129,-2.1312,-2.1322,-2.133,0,0,0,0,0,0,-2.0742,-2.0795,-2.0794,-2.0873,-2.0912,-2.0957,-2.0995,-2.0994,-2.1038,-2.1033,-2.1048,-2.1058,-2.1127,-2.1148,-2.1115,-2.1231,-2.1203,-2.1211,-2.1215,-2.1224,-2.1232,-2.1224,-2.1093,0,0,0,0,0,-2.0755,-2.0806,-2.0849,-2.0915,-2.0934,-2.0962,-2.0991,-2.0999,-2.1038,-2.1054,-2.1082,-2.1119,-2.1166,-2.1197,-2.1242,-2.1319,-2.1328,-2.1352,-2.136,-2.1365,-2.1372,-2.1412,-2.1423,-2.131,-2.1309,-2.1309,0,0,-2.0782,-2.0817,-2.0848,-2.0919,-2.0949,-2.0999,-2.0975,-2.103,-2.1066,-2.1061,-2.1128,-2.115,-2.1192,-2.1265,-2.1298,-2.1285,-2.1405,-2.1372,-2.1376,-2.138,-2.1419,-2.1429,-2.1439,-2.1313,-2.1312,-2.1312,0,0,-2.0856,-2.0888,-2.0946,-2.0978,-2.1025,-2.1043,-2.1056,-2.1102,-2.1117,-2.1184,-2.1181,-2.1224,-2.1306,-2.1335,-2.1361,-2.1445,-2.1439,-2.146,-2.1497,-2.1536,-2.1545,-2.1553,-2.1581,-2.1591,-2.1467,-2.1467,-2.1467,0,-2.0882,-2.0959,-2.0976,-2.1031,-2.1061,-2.106,-2.1118,-2.1147,-2.1206,-2.1225,-2.121,-2.1311,-2.134,-2.1419,-2.1439,-2.1461,-2.1475,-2.1454,-2.1543,-2.1551,-2.1559,-2.1585,-2.1596,-2.1469,-2.1468,-2.1468,-2.1468,0,-2.0989,-2.1042,-2.1083,-2.1141,-2.1176,-2.1232,-2.1254,-2.1288,-2.1292,-2.1311,-2.1378,-2.1412,-2.1464,-2.1484,-2.1488,-2.1563,-2.1552,-2.154,-2.1511,-2.1571,-2.1596,-2.1607,-2.1472,-2.1471,-2.147,-2.147,0,0,-2.1074,-2.1141,-2.1155,-2.1181,-2.1233,-2.1273,-2.1328,-2.138,-2.1407,-2.1448,-2.1492,-2.1561,-2.155,-2.1579,-2.1587,-2.1621,-2.1683,-2.1604,-2.1605,-2.1616,-2.1765,-2.1772,-2.1784,-2.168,-2.1683,-2.1684,-2.176,0,-2.1151,-2.1251,-2.1266,-2.1352,-2.1401,-2.1401,-2.1448,-2.1484,-2.1503,-2.1545,-2.1565,-2.1613,-2.1595,-2.1612,-2.1647,-2.1669,-2.1713,-2.1664,-2.172,-2.1721,-2.1707,-2.1798,-2.1806,-2.1877,-2.1771,-2.1772,-2.1774,0,-2.1255,-2.1299,-2.1391,-2.1435,-2.1456,-2.1498,-2.1546,-2.1588,-2.1627,-2.1638,-2.1671,-2.1675,-2.1729,-2.1699,-2.1773,-2.1739,-2.1763,-2.1777,-2.178,-2.1784,-2.175,-2.1802,-2.19,-2.1909,-2.179,-2.1788,-2.1787,0,-2.1305,-2.1388,-2.1453,-2.1475,-2.1529,-2.1559,-2.1582,-2.162,-2.165,-2.1691,-2.171,-2.1757,-2.1782,-2.1817,-2.1832,-2.181,-2.1905,-2.1877,-2.1913,-2.1913,-2.1932,-2.193,-2.2032,-2.1951,-2.195,-2.195,-2.195,0,-2.1389,-2.1444,-2.1476,-2.1516,-2.1577,-2.1594,-2.1654,-2.1676,-2.171,-2.1752,-2.1755,-2.1794,-2.1813,-2.1854,-2.1866,-2.1924,-2.1936,-2.1945,-2.1947,-2.1943,-2.1942,-2.1958,-2.1952,-2.1953,-2.1952,-2.1952,-2.1951,0,-2.1455,-2.1479,-2.155,-2.1595,-2.1608,-2.1651,-2.1688,-2.1726,-2.1745,-2.1798,-2.1811,-2.184,-2.1889,-2.1908,-2.1967,-2.1975,-2.2042,-2.2041,-2.2028,-2.2029,-2.2063,-2.2059,-2.2178,-2.2193,-2.2103,-2.2104,-2.2105,0,-2.1506,-2.1549,-2.1599,-2.1629,-2.1653,-2.1701,-2.1731,-2.1749,-2.1781,-2.1829,-2.186,-2.1909,-2.1949,-2.2027,-2.2051,-2.2096,-2.2095,-2.2134,-2.2102,-2.2096,-2.2093,-2.209,-2.2093,-2.2139,-2.214,-2.214,-2.2141,0,-2.1593,-2.1603,-2.1648,-2.1697,-2.1734,-2.1773,-2.1811,-2.1835,-2.1858,-2.1893,-2.1944,-2.1975,-2.2036,-2.2083,-2.213,-2.2151,-2.2149,-2.2151,-2.2162,-2.2158,-2.2148,-2.2151,-2.2042,-2.2148,-2.2147,-2.2147,-2.2146,-2.2146,-2.1652,-2.1689,-2.173,-2.178,-2.1811,-2.1846,-2.1883,-2.1907,-2.195,-2.2002,-2.201,-2.2064,-2.21,-2.2162,-2.2186,-2.2227,-2.2216,-2.2232,-2.2236,-2.2239,-2.224,-2.2143,-2.2235,-2.2235,-2.2235,-2.2235,-2.2235,0,-2.1737,-2.1764,-2.181,-2.1863,-2.1902,-2.1899,-2.1941,-2.1972,-2.202,-2.2056,-2.2096,-2.2153,-2.2199,-2.2227,-2.2273,-2.23,-2.23,-2.2311,-2.2308,-2.2313,-2.2248,-2.2233,-2.231,-2.231,-2.231,-2.231,-2.231,-2.231,-2.1786,-2.1849,-2.1863,-2.194,-2.1966,-2.202,-2.2044,-2.2075,-2.2104,-2.2168,-2.2207,-2.2226,-2.2258,-2.2306,-2.2348,-2.2355,-2.237,-2.2382,-2.2388,-2.2326,-2.2318,-2.231,-2.2297,-2.2386,-2.2386,-2.2449,-2.245,-2.245]},{"header":{"parameterUnit":"m.s-1","parameterCategory":1,"la1":30.2991,"la2":30.254,"lo1":-89.0895,"lo2":-89.0444,"dy":0.0017,"dx":0.0017,"nx":28,"ny":28,"refTime":"2024-08-10T15:00:00:Z","depth":0,"parameterNumber":3,"parameterNumberName":"V-component_of_WINDS"},"data":[0,0,0,0,0,0,0,0,0,0,0,0,0,0,0,0,0,0,0,0,0,0,0,0,0,0,0,0,0,0,0,0,0,0,0,0,0,0,0,0,0,0,0,0,0,0,0,0,0,0,0,0,0,0,0,0,0,0,-2.3566,-2.3566,0,-2.3578,-2.3579,-2.3579,-2.3553,-2.3553,-2.3552,-2.3551,-2.3563,-2.3565,-2.3566,0,0,0,0,0,0,0,0,0,0,0,0,0,-2.3517,-2.3518,-2.3565,-2.3566,-2.3566,-2.3578,-2.3579,-2.3579,-2.3554,-2.3553,-2.3552,-2.3551,-2.3563,-2.3564,-2.3566,0,0,0,0,0,0,0,0,0,0,0,0,0,-2.3535,-2.3518,-2.3565,-2.3555,-2.3554,-2.3578,-2.3579,-2.3579,-2.3554,-2.3553,-2.3551,-2.355,-2.3563,-2.3564,-2.3566,-2.3601,0,0,-2.3571,-2.3572,0,0,0,0,0,0,0,0,-2.3534,-2.3537,-2.3556,-2.3556,-2.3555,-2.3563,-2.3566,-2.3586,-2.3554,-2.3554,-2.3551,-2.355,-2.3564,-2.3566,-2.3571,-2.3602,-2.3602,-2.3571,-2.3572,-2.3573,-2.3573,0,0,0,0,0,0,0,-2.3533,-2.3536,-2.3571,-2.3557,-2.3556,-2.3549,-2.355,-2.357,-2.3566,-2.3554,-2.3552,-2.3554,-2.3564,-2.3569,-2.3571,-2.3602,-2.3571,-2.3573,-2.3574,-2.3574,-2.366,-2.3661,0,0,0,0,0,0,-2.3533,-2.3535,-2.357,-2.3571,-2.3541,-2.3551,-2.3552,-2.3562,-2.3566,-2.3565,-2.3555,-2.3553,-2.3567,-2.3569,-2.3571,-2.3611,-2.3573,-2.3574,-2.3575,-2.3659,-2.366,-2.3662,0,0,0,0,0,0,-2.3532,-2.3536,-2.357,-2.3552,-2.3556,-2.3553,-2.3564,-2.3563,-2.3568,-2.3566,-2.3565,-2.3562,-2.3566,-2.3569,-2.3593,-2.3611,-2.3575,-2.3577,-2.3657,-2.3659,-2.3661,-2.3692,0,0,0,0,0,0,-2.3531,-2.3536,-2.355,-2.3553,-2.3557,-2.3592,-2.3565,-2.3564,-2.3571,-2.3568,-2.3572,-2.3572,-2.3565,-2.3591,-2.3595,-2.3613,-2.3578,-2.3656,-2.3658,-2.366,-2.3689,-2.3694,-2.3699,0,0,0,0,0,-2.3529,-2.3559,-2.3551,-2.3555,-2.3575,-2.3593,-2.3596,-2.3588,-2.3573,-2.3586,-2.3585,-2.3572,-2.3609,-2.3594,-2.3598,-2.3616,-2.3654,-2.3657,-2.366,-2.3687,-2.3693,-2.3699,0,0,0,0,0,0,-2.3558,-2.3559,-2.355,-2.3582,-2.3588,-2.3589,-2.3606,-2.3595,-2.3605,-2.3602,-2.3592,-2.3593,-2.3619,-2.362,-2.3604,-2.3649,-2.3629,-2.3633,-2.3648,-2.3654,-2.3659,-2.3657,-2.3579,0,0,0,0,0,-2.3568,-2.3584,-2.3583,-2.3611,-2.3614,-2.361,-2.3618,-2.3611,-2.3616,-2.3619,-2.3619,-2.3625,-2.3637,-2.3646,-2.3657,-2.3689,-2.3689,-2.3704,-2.3709,-2.3713,-2.3716,-2.3731,-2.3737,-2.3671,-2.3671,-2.3671,0,0,-2.3589,-2.3592,-2.3602,-2.3617,-2.3621,-2.3636,-2.3612,-2.363,-2.3641,-2.3621,-2.3644,-2.3644,-2.365,-2.3677,-2.369,-2.3679,-2.3734,-2.3717,-2.372,-2.3721,-2.3735,-2.3741,-2.3746,-2.3673,-2.3673,-2.3672,0,0,-2.3635,-2.3639,-2.3662,-2.3666,-2.3671,-2.3667,-2.3673,-2.3675,-2.3675,-2.3697,-2.3682,-2.3695,-2.3718,-2.3721,-2.3726,-2.3771,-2.3759,-2.3775,-2.3801,-2.3816,-2.3821,-2.3825,-2.384,-2.3845,-2.3779,-2.3779,-2.3779,0,-2.3661,-2.3684,-2.3675,-2.3693,-2.3699,-2.3682,-2.3703,-2.3708,-2.3717,-2.3721,-2.371,-2.3736,-2.3739,-2.3766,-2.3777,-2.3782,-2.3786,-2.3775,-2.3821,-2.3825,-2.383,-2.3843,-2.3849,-2.3781,-2.378,-2.378,-2.378,0,-2.3713,-2.3729,-2.3747,-2.3755,-2.3764,-2.3784,-2.3777,-2.3786,-2.3778,-2.3775,-2.3797,-2.38,-2.3811,-2.3817,-2.381,-2.3843,-2.3836,-2.3823,-2.3802,-2.3838,-2.385,-2.3856,-2.3783,-2.3783,-2.3782,-2.3782,0,0,-2.3779,-2.3781,-2.3787,-2.379,-2.3794,-2.3806,-2.3824,-2.3835,-2.3842,-2.3849,-2.3863,-2.3882,-2.3869,-2.3874,-2.3867,-2.3881,-2.3914,-2.3866,-2.3865,-2.3873,-2.3948,-2.3957,-2.3963,-2.3906,-2.3907,-2.3908,-2.3947,0,-2.3823,-2.3855,-2.3846,-2.3878,-2.3891,-2.3874,-2.389,-2.3893,-2.3891,-2.3902,-2.3899,-2.3911,-2.3895,-2.3898,-2.391,-2.3907,-2.3929,-2.3904,-2.3918,-2.3919,-2.3916,-2.397,-2.398,-2.4017,-2.3952,-2.3953,-2.3954,0,-2.3879,-2.3887,-2.3919,-2.3919,-2.3924,-2.3939,-2.3946,-2.3957,-2.396,-2.3957,-2.3963,-2.3953,-2.397,-2.3949,-2.3971,-2.3955,-2.396,-2.3959,-2.3961,-2.3961,-2.3938,-2.397,-2.4029,-2.4034,-2.3962,-2.3961,-2.396,0,-2.3921,-2.394,-2.3961,-2.3964,-2.3965,-2.3975,-2.3976,-2.3978,-2.3984,-2.3991,-2.3994,-2.4003,-2.4007,-2.4014,-2.4006,-2.3992,-2.4029,-2.4008,-2.4026,-2.4026,-2.4034,-2.4033,-2.4093,-2.4039,-2.4039,-2.4039,-2.4039,0,-2.3971,-2.3991,-2.398,-2.3993,-2.4014,-2.4004,-2.4025,-2.4024,-2.4026,-2.4037,-2.4023,-2.4035,-2.4024,-2.4034,-2.4028,-2.4046,-2.4049,-2.4046,-2.4044,-2.4047,-2.4047,-2.4049,-2.4046,-2.4041,-2.404,-2.404,-2.404,0,-2.4022,-2.4015,-2.4037,-2.4035,-2.4035,-2.4051,-2.4049,-2.4061,-2.4057,-2.4071,-2.4074,-2.4068,-2.4079,-2.4071,-2.4083,-2.4078,-2.4102,-2.4097,-2.4101,-2.4099,-2.4117,-2.4115,-2.4179,-2.4186,-2.4129,-2.413,-2.413,0,-2.4054,-2.4068,-2.4068,-2.4074,-2.4076,-2.4087,-2.4092,-2.4082,-2.4089,-2.4092,-2.4103,-2.4112,-2.4119,-2.4137,-2.4133,-2.4141,-2.4135,-2.4157,-2.4136,-2.4138,-2.4134,-2.4132,-2.4133,-2.4161,-2.4162,-2.4162,-2.4163,0,-2.411,-2.4105,-2.4114,-2.4121,-2.4128,-2.4133,-2.4137,-2.4143,-2.4133,-2.414,-2.4151,-2.4156,-2.4167,-2.4176,-2.4182,-2.4182,-2.417,-2.4169,-2.4174,-2.4176,-2.4177,-2.4175,-2.4111,-2.4168,-2.4167,-2.4167,-2.4167,-2.4166,-2.4151,-2.4162,-2.4163,-2.4173,-2.4174,-2.4178,-2.4188,-2.4184,-2.4193,-2.42,-2.4194,-2.4206,-2.4207,-2.4214,-2.4215,-2.4224,-2.4215,-2.4222,-2.4223,-2.4225,-2.4226,-2.4176,-2.4225,-2.4225,-2.4225,-2.4225,-2.4225,0,-2.4205,-2.4204,-2.4213,-2.4218,-2.4225,-2.4213,-2.4217,-2.4223,-2.4234,-2.4236,-2.4242,-2.4254,-2.4262,-2.4258,-2.4265,-2.4273,-2.4267,-2.4275,-2.4273,-2.4273,-2.4235,-2.423,-2.4279,-2.4279,-2.4279,-2.4279,-2.4279,-2.4279,-2.4234,-2.4252,-2.4247,-2.4265,-2.4264,-2.4276,-2.4278,-2.4281,-2.4282,-2.4295,-2.4301,-2.4299,-2.4298,-2.4304,-2.4311,-2.431,-2.4312,-2.4321,-2.4318,-2.4282,-2.4276,-2.4271,-2.4266,-2.4322,-2.4322,-2.4355,-2.4356,-2.4356]}]]